Weather History for Grand Forks, ND

Change the Weather History Date:

Thursday, January 10, 2013

  Actual Average Record
Temperature  
Mean Temperature 32 °F 6 °F  
Max Temperature 40 °F 16 °F 52 °F (1990)
Min Temperature 23 °F -3 °F -33 °F (1989)
Degree Days  
Heating Degree Days 33 59  
Month to date heating degree days 477 582  
Since 1 July heating degree days 4235 4441  
Cooling Degree Days 0 0  
Month to date cooling degree days 0 0  
Year to date cooling degree days 0 0  
Moisture  
Dew Point 28 °F    
Average Humidity 71    
Maximum Humidity 96    
Minimum Humidity 46    
Precipitation  
Precipitation 0.20 in 0.02 in 0.30 in (1976)
Month to date precipitation 0.23 0.19  
Year to date precipitation 0.23 0.19  
Snow  
Snow T in 0.30 in 3.00 in (1976)
Month to date snowfall 0.4 3.6  
Since 1 July snowfall 15.4 23.5  
Snow Depth 3.00 in    
Sea Level Pressure  
Sea Level Pressure 29.71 in    
Wind  
Wind Speed 18 mph (South)    
Max Wind Speed 31 mph    
Max Gust Speed 40 mph    
Visibility 8 miles    
Events Rain , Snow    
T = Trace of Precipitation, MM = Missing Value Source: NWS Daily Summary

Daily Weather History Graph

Daily Weather History Graph

Search for Another Location

Airport:

Trip Planner

Search our weather history database for the weather conditions in past years. The results will help you decide how hot, cold, wet, or windy it might be!

Date:

Astronomy

Jan. 10, 2013 Rise Set
Actual Time 8:16 AM CST 4:57 PM CST
Civil Twilight 7:40 AM CST 5:32 PM CST
Nautical Twilight 7:01 AM CST 6:11 PM CST
Astronomical Twilight 6:24 AM CST 6:48 PM CST
Moon 6:56 AM CST (1/10) 4:07 PM CST (1/10)
Length of Visible Light 9h 51m
Length of Day
8h 40m
Waning Crescent, 2% of the Moon is Illuminated
Jan 10
Waning Crescent
Jan 11
New
Jan 18
First Quarter
Jan 26
Full
Feb 3
Last Quarter

Hourly Weather History & Observations

Time (CST) Temp. Windchill Dew Point Humidity Pressure Visibility Wind Dir Wind Speed Gust Speed Precip Events Conditions
12:53 AM 25.0 °F 12.2 °F 19.0 °F 78% 29.99 in 10.0 mi South 16.1 mph - N/A   Clear
1:53 AM 25.0 °F 11.7 °F 19.0 °F 78% 29.96 in 10.0 mi SSE 17.3 mph - N/A   Clear
2:53 AM 24.1 °F 11.5 °F 19.0 °F 81% 29.93 in 10.0 mi SSE 15.0 mph - N/A   Clear
3:53 AM 25.0 °F 12.6 °F 21.0 °F 85% 29.90 in 10.0 mi SSE 15.0 mph - N/A   Partly Cloudy
4:53 AM 27.0 °F 15.6 °F 21.9 °F 81% 29.85 in 10.0 mi SSE 13.8 mph - N/A   Mostly Cloudy
5:53 AM 28.9 °F 17.7 °F 24.1 °F 82% 29.82 in 10.0 mi South 15.0 mph - N/A   Overcast
6:53 AM 32.0 °F 20.5 °F 25.0 °F 75% 29.81 in 10.0 mi South 18.4 mph - N/A   Overcast
7:53 AM 33.8 °F 22.5 °F 26.6 °F 75% 29.74 in 10.0 mi South 19.6 mph - N/A   Mostly Cloudy
8:53 AM 42.1 °F 32.6 °F 27.0 °F 55% 29.76 in 10.0 mi South 23.0 mph - N/A   Mostly Cloudy
9:53 AM 45.0 °F 35.8 °F 28.0 °F 52% 29.75 in 10.0 mi South 26.5 mph 32.2 mph N/A   Overcast
10:53 AM 46.9 °F - 28.0 °F 48% 29.75 in 10.0 mi South 25.3 mph 34.5 mph N/A   Overcast
11:53 AM 48.0 °F - 28.0 °F 46% 29.73 in 10.0 mi South 28.8 mph 36.8 mph N/A   Overcast
12:53 PM 48.9 °F - 28.0 °F 44% 29.72 in 10.0 mi South 24.2 mph - N/A   Overcast
1:53 PM 48.9 °F - 28.9 °F 46% 29.70 in 10.0 mi South 19.6 mph - N/A   Mostly Cloudy
2:53 PM 39.2 °F 30.2 °F 30.0 °F 70% 29.70 in 10.0 mi South 17.3 mph 26.5 mph N/A   Mostly Cloudy
3:53 PM 38.5 °F 28.3 °F 28.9 °F 69% 29.69 in 10.0 mi South 20.7 mph - N/A   Mostly Cloudy
4:53 PM 37.2 °F 27.9 °F 28.0 °F 69% 29.67 in 10.0 mi SSE 16.1 mph 23.0 mph N/A   Overcast
5:53 PM 36.3 °F 27.1 °F 28.0 °F 72% 29.67 in 10.0 mi South 15.0 mph 24.2 mph N/A   Mostly Cloudy
6:53 PM 36.3 °F 26.8 °F 28.0 °F 72% 29.64 in 10.0 mi South 16.1 mph 24.2 mph N/A   Overcast
7:34 PM 35.6 °F 24.8 °F 28.4 °F 75% 29.59 in 10.0 mi South 19.6 mph 25.3 mph N/A   Overcast
7:53 PM 35.6 °F 27.5 °F 28.9 °F 77% 29.62 in 10.0 mi South 11.5 mph 20.7 mph N/A   Overcast
8:22 PM 35.6 °F 27.5 °F 32.0 °F 87% 29.59 in 8.0 mi South 11.5 mph - 0.00 in Rain Light Rain
8:37 PM 35.6 °F 28.0 °F 32.0 °F 87% 29.58 in 5.0 mi South 10.4 mph - 0.01 in Rain Light Rain
8:53 PM 34.7 °F 26.4 °F 31.1 °F 87% 29.61 in 3.0 mi South 11.5 mph - 0.02 in Rain , Snow Light Rain
9:35 PM 33.8 °F 23.5 °F 33.8 °F 100% 29.58 in 2.5 mi South 16.1 mph 24.2 mph 0.07 in Rain , Snow Light Rain
9:53 PM 33.8 °F 23.5 °F 33.1 °F 97% 29.60 in 2.5 mi South 16.1 mph 25.3 mph 0.08 in Rain Light Rain
10:16 PM 33.8 °F 23.5 °F 32.0 °F 93% 29.55 in 2.5 mi South 16.1 mph 25.3 mph 0.05 in Rain Light Rain
10:53 PM 34.0 °F 23.8 °F 32.0 °F 92% 29.56 in 3.0 mi South 16.1 mph 24.2 mph 0.08 in Rain Light Rain
11:53 PM 34.2 °F 25.7 °F 32.0 °F 92% 29.55 in 3.0 mi South 11.5 mph - 0.01 in Rain Light Rain